Time,TemperatureF,DewpointF,PressureIn,WindDirection,WindDirectionDegrees,WindSpeedMPH,WindSpeedGustMPH,Humidity,HourlyPrecipIn,Conditions,Clouds,dailyrainin,SoftwareType,DateUTC
2014-01-10 00:13:00,45.9,46.0,30.23,SE,143,0.0,1.0,99,0.01,,,0.00,weatherlink.com 1.10,2014-01-10 06:13:00,
2014-01-10 00:28:00,46.0,46.0,30.23,SE,143,0.0,0.0,99,0.00,,,0.00,weatherlink.com 1.10,2014-01-10 06:28:00,
2014-01-10 00:43:00,46.1,46.0,30.23,WSW,250,1.0,1.0,99,0.00,,,0.00,weatherlink.com 1.10,2014-01-10 06:43:00,
2014-01-10 00:58:00,46.2,46.0,30.23,WNW,284,0.0,1.0,99,0.00,,,0.00,weatherlink.com 1.10,2014-01-10 06:58:00,
2014-01-10 01:13:00,46.3,46.0,30.22,NNW,331,0.0,1.0,99,0.01,,,0.01,weatherlink.com 1.10,2014-01-10 07:13:00,
2014-01-10 01:28:00,46.3,46.0,30.22,WNW,291,0.0,1.0,99,0.01,,,0.01,weatherlink.com 1.10,2014-01-10 07:28:00,
2014-01-10 01:43:00,46.4,46.0,30.22,East,94,0.0,0.0,99,0.02,,,0.02,weatherlink.com 1.10,2014-01-10 07:43:00,
2014-01-10 01:58:00,46.5,46.0,30.21,East,100,0.0,1.0,99,0.02,,,0.02,weatherlink.com 1.10,2014-01-10 07:58:00,
2014-01-10 02:13:00,46.7,47.0,30.20,SE,128,0.0,1.0,99,0.01,,,0.02,weatherlink.com 1.10,2014-01-10 08:13:00,
2014-01-10 02:28:00,46.9,47.0,30.20,East,91,0.0,1.0,99,0.01,,,0.02,weatherlink.com 1.10,2014-01-10 08:28:00,
2014-01-10 02:43:00,46.9,47.0,30.20,ESE,103,0.0,1.0,99,0.00,,,0.02,weatherlink.com 1.10,2014-01-10 08:43:00,
2014-01-10 02:58:00,46.8,47.0,30.19,East,80,0.0,2.0,99,0.00,,,0.02,weatherlink.com 1.10,2014-01-10 08:58:00,
2014-01-10 03:13:00,46.9,47.0,30.19,East,82,1.0,1.0,99,0.00,,,0.02,weatherlink.com 1.10,2014-01-10 09:13:00,
2014-01-10 03:28:00,47.0,47.0,30.19,East,82,0.0,1.0,99,0.00,,,0.02,weatherlink.com 1.10,2014-01-10 09:28:00,
2014-01-10 03:43:00,47.1,47.0,30.18,East,98,0.0,2.0,99,0.00,,,0.02,weatherlink.com 1.10,2014-01-10 09:43:00,
2014-01-10 03:58:00,47.2,47.0,30.18,ESE,113,0.0,1.0,99,0.00,,,0.02,weatherlink.com 1.10,2014-01-10 09:58:00,
2014-01-10 04:13:00,47.3,47.0,30.18,ENE,73,1.0,2.0,99,0.00,,,0.02,weatherlink.com 1.10,2014-01-10 10:13:00,
2014-01-10 04:28:00,47.3,47.0,30.17,ENE,77,0.0,3.0,99,0.00,,,0.02,weatherlink.com 1.10,2014-01-10 10:28:00,
2014-01-10 04:43:00,47.5,47.0,30.17,East,99,2.0,5.0,99,0.00,,,0.02,weatherlink.com 1.10,2014-01-10 10:43:00,
2014-01-10 04:58:00,47.6,47.0,30.16,ENE,77,2.0,4.0,99,0.00,,,0.02,weatherlink.com 1.10,2014-01-10 10:58:00,
2014-01-10 05:13:00,47.6,47.0,30.16,ESE,113,1.0,2.0,99,0.00,,,0.02,weatherlink.com 1.10,2014-01-10 11:13:00,
2014-01-10 05:28:00,47.7,48.0,30.16,ENE,78,2.0,2.0,99,0.00,,,0.02,weatherlink.com 1.10,2014-01-10 11:28:00,
2014-01-10 05:43:00,47.7,48.0,30.16,ESE,107,1.0,3.0,99,0.00,,,0.02,weatherlink.com 1.10,2014-01-10 11:43:00,
2014-01-10 05:58:00,47.8,48.0,30.16,ENE,73,0.0,3.0,99,0.00,,,0.02,weatherlink.com 1.10,2014-01-10 11:58:00,
2014-01-10 06:13:00,47.8,48.0,30.16,ENE,74,0.0,2.0,99,0.00,,,0.02,weatherlink.com 1.10,2014-01-10 12:13:00,
2014-01-10 06:28:00,47.9,48.0,30.16,East,85,1.0,5.0,99,0.00,,,0.02,weatherlink.com 1.10,2014-01-10 12:28:00,
2014-01-10 06:43:00,47.8,48.0,30.16,ESE,115,2.0,5.0,99,0.00,,,0.02,weatherlink.com 1.10,2014-01-10 12:43:00,
2014-01-10 06:58:00,47.7,48.0,30.16,East,94,3.0,4.0,99,0.00,,,0.02,weatherlink.com 1.10,2014-01-10 12:58:00,
2014-01-10 07:13:00,47.7,48.0,30.15,East,96,0.0,3.0,99,0.00,,,0.02,weatherlink.com 1.10,2014-01-10 13:13:00,
2014-01-10 07:28:00,47.8,48.0,30.16,East,92,1.0,3.0,99,0.00,,,0.02,weatherlink.com 1.10,2014-01-10 13:28:00,
2014-01-10 07:43:00,48.0,48.0,30.16,ESE,120,0.0,3.0,99,0.00,,,0.02,weatherlink.com 1.10,2014-01-10 13:43:00,
2014-01-10 07:58:00,48.3,48.0,30.17,East,82,0.0,2.0,99,0.00,,,0.02,weatherlink.com 1.10,2014-01-10 13:58:00,
2014-01-10 08:13:00,48.6,48.0,30.18,East,96,1.0,4.0,99,0.00,,,0.02,weatherlink.com 1.10,2014-01-10 14:13:00,
2014-01-10 08:28:00,49.1,49.0,30.18,ESE,110,1.0,2.0,99,0.00,,,0.02,weatherlink.com 1.10,2014-01-10 14:28:00,
2014-01-10 08:43:00,49.6,49.0,30.18,East,82,1.0,2.0,99,0.00,,,0.02,weatherlink.com 1.10,2014-01-10 14:43:00,
2014-01-10 08:59:00,50.0,50.0,30.18,ESE,112,1.0,3.0,99,0.00,,,0.02,weatherlink.com 1.10,2014-01-10 14:59:00,
2014-01-10 09:14:00,50.4,50.0,30.18,East,82,0.0,4.0,99,0.00,,,0.02,weatherlink.com 1.10,2014-01-10 15:14:00,
2014-01-10 09:29:00,50.6,50.0,30.18,ENE,75,3.0,4.0,99,0.00,,,0.02,weatherlink.com 1.10,2014-01-10 15:29:00,
2014-01-10 09:44:00,50.8,51.0,30.18,ENE,77,2.0,4.0,99,0.00,,,0.02,weatherlink.com 1.10,2014-01-10 15:44:00,
2014-01-10 09:59:00,51.2,51.0,30.17,East,82,0.0,2.0,99,0.00,,,0.02,weatherlink.com 1.10,2014-01-10 15:59:00,
2014-01-10 10:14:00,51.3,51.0,30.16,ESE,108,0.0,3.0,99,0.00,,,0.02,weatherlink.com 1.10,2014-01-10 16:14:00,
2014-01-10 10:29:00,51.7,52.0,30.15,East,96,0.0,1.0,99,0.00,,,0.02,weatherlink.com 1.10,2014-01-10 16:29:00,
2014-01-10 10:44:00,51.8,52.0,30.14,ENE,71,1.0,5.0,99,0.00,,,0.02,weatherlink.com 1.10,2014-01-10 16:44:00,
2014-01-10 10:59:00,51.8,52.0,30.14,ENE,73,2.0,3.0,99,0.00,,,0.02,weatherlink.com 1.10,2014-01-10 16:59:00,
2014-01-10 11:14:00,52.0,52.0,30.13,East,100,2.0,3.0,99,0.00,,,0.02,weatherlink.com 1.10,2014-01-10 17:14:00,
2014-01-10 11:29:00,52.6,52.0,30.11,SE,132,2.0,2.0,99,0.00,,,0.02,weatherlink.com 1.10,2014-01-10 17:29:00,
2014-01-10 11:59:00,52.9,53.0,30.09,East,89,2.0,3.0,99,0.00,,,0.02,weatherlink.com 1.10,2014-01-10 17:59:00,
2014-01-10 12:14:00,53.0,53.0,30.08,East,88,1.0,5.0,99,0.00,,,0.02,weatherlink.com 1.10,2014-01-10 18:14:00,
2014-01-10 12:29:00,53.4,53.0,30.07,East,86,0.0,3.0,99,0.00,,,0.02,weatherlink.com 1.10,2014-01-10 18:29:00,
2014-01-10 12:44:00,53.8,54.0,30.06,East,97,1.0,3.0,99,0.00,,,0.02,weatherlink.com 1.10,2014-01-10 18:44:00,
2014-01-10 12:59:00,54.4,54.0,30.05,East,82,3.0,4.0,99,0.00,,,0.02,weatherlink.com 1.10,2014-01-10 18:59:00,
2014-01-10 13:14:00,54.8,55.0,30.04,East,98,1.0,4.0,99,0.00,,,0.02,weatherlink.com 1.10,2014-01-10 19:14:00,
2014-01-10 13:29:00,55.1,55.0,30.03,East,84,3.0,5.0,99,0.00,,,0.02,weatherlink.com 1.10,2014-01-10 19:29:00,
2014-01-10 13:44:00,55.4,55.0,30.03,East,84,1.0,3.0,99,0.00,,,0.02,weatherlink.com 1.10,2014-01-10 19:44:00,
2014-01-10 13:59:00,55.7,56.0,30.03,East,96,2.0,4.0,99,0.00,,,0.02,weatherlink.com 1.10,2014-01-10 19:59:00,
2014-01-10 14:14:00,56.0,56.0,30.02,East,82,2.0,2.0,99,0.01,,,0.03,weatherlink.com 1.10,2014-01-10 20:14:00,
2014-01-10 14:29:00,56.1,56.0,30.02,East,100,2.0,2.0,99,0.01,,,0.03,weatherlink.com 1.10,2014-01-10 20:29:00,
2014-01-10 14:44:00,56.1,56.0,30.02,East,82,2.0,3.0,99,0.01,,,0.03,weatherlink.com 1.10,2014-01-10 20:44:00,
2014-01-10 14:59:00,56.2,56.0,30.01,East,86,1.0,2.0,99,0.01,,,0.03,weatherlink.com 1.10,2014-01-10 20:59:00,
2014-01-10 15:14:00,56.4,56.0,30.01,ESE,117,2.0,3.0,99,0.00,,,0.03,weatherlink.com 1.10,2014-01-10 21:14:00,
2014-01-10 15:29:00,56.4,56.0,30.01,East,96,1.0,5.0,99,0.00,,,0.03,weatherlink.com 1.10,2014-01-10 21:29:00,
2014-01-10 15:44:00,56.4,56.0,30.01,East,92,2.0,5.0,99,0.00,,,0.03,weatherlink.com 1.10,2014-01-10 21:44:00,
2014-01-10 15:59:00,56.3,56.0,30.01,East,94,1.0,4.0,99,0.00,,,0.03,weatherlink.com 1.10,2014-01-10 21:59:00,
2014-01-10 16:15:00,56.2,56.0,30.00,ESE,103,0.0,5.0,99,0.00,,,0.03,weatherlink.com 1.10,2014-01-10 22:15:00,
2014-01-10 16:30:00,56.2,56.0,30.01,East,85,2.0,3.0,99,0.00,,,0.03,weatherlink.com 1.10,2014-01-10 22:30:00,
2014-01-10 16:45:00,56.1,56.0,30.01,ESE,106,1.0,4.0,99,0.00,,,0.03,weatherlink.com 1.10,2014-01-10 22:45:00,
2014-01-10 17:00:00,56.0,56.0,30.01,East,94,2.0,4.0,99,0.00,,,0.03,weatherlink.com 1.10,2014-01-10 23:00:00,
2014-01-10 17:15:00,56.0,56.0,30.01,East,84,2.0,3.0,99,0.00,,,0.03,weatherlink.com 1.10,2014-01-10 23:15:00,
2014-01-10 17:30:00,56.0,56.0,30.00,East,94,3.0,4.0,99,0.00,,,0.03,weatherlink.com 1.10,2014-01-10 23:30:00,
2014-01-10 17:45:00,56.0,56.0,30.01,East,94,2.0,5.0,99,0.00,,,0.03,weatherlink.com 1.10,2014-01-10 23:45:00,
2014-01-10 18:00:00,56.0,56.0,30.00,East,99,0.0,4.0,100,0.00,,,0.03,weatherlink.com 1.10,2014-01-11 00:00:00,
2014-01-10 18:15:00,56.1,56.0,30.00,East,81,3.0,4.0,100,0.00,,,0.03,weatherlink.com 1.10,2014-01-11 00:15:00,
2014-01-10 18:30:00,56.5,57.0,30.00,East,84,3.0,9.0,100,0.00,,,0.03,weatherlink.com 1.10,2014-01-11 00:30:00,
2014-01-10 18:45:00,56.6,57.0,30.00,SE,124,3.0,5.0,100,0.00,,,0.03,weatherlink.com 1.10,2014-01-11 00:45:00,
2014-01-10 19:00:00,57.0,57.0,30.00,ENE,67,3.0,6.0,100,0.00,,,0.03,weatherlink.com 1.10,2014-01-11 01:00:00,
2014-01-10 19:30:00,57.8,58.0,30.00,East,94,2.0,5.0,100,0.00,,,0.03,weatherlink.com 1.10,2014-01-11 01:30:00,
2014-01-10 19:45:00,58.0,58.0,30.00,East,91,3.0,5.0,100,0.01,,,0.04,weatherlink.com 1.10,2014-01-11 01:45:00,
2014-01-10 20:15:00,58.7,59.0,29.99,East,94,4.0,6.0,100,0.01,,,0.04,weatherlink.com 1.10,2014-01-11 02:15:00,
2014-01-10 20:30:00,59.2,59.0,29.98,ESE,113,5.0,7.0,100,0.01,,,0.04,weatherlink.com 1.10,2014-01-11 02:30:00,
2014-01-10 20:45:00,59.3,59.0,29.98,East,101,3.0,6.0,100,0.00,,,0.04,weatherlink.com 1.10,2014-01-11 02:45:00,
2014-01-10 21:00:00,59.7,60.0,29.98,SE,125,2.0,8.0,100,0.00,,,0.04,weatherlink.com 1.10,2014-01-11 03:00:00,
2014-01-10 21:15:00,60.4,60.0,29.97,ENE,62,3.0,8.0,100,0.00,,,0.04,weatherlink.com 1.10,2014-01-11 03:15:00,
2014-01-10 21:30:00,60.9,61.0,29.97,East,95,2.0,7.0,100,0.00,,,0.04,weatherlink.com 1.10,2014-01-11 03:30:00,
2014-01-10 21:45:00,61.0,61.0,29.97,ESE,123,6.0,6.0,100,0.07,,,0.11,weatherlink.com 1.10,2014-01-11 03:45:00,
2014-01-10 22:00:00,62.3,62.0,29.95,ESE,103,7.0,10.0,100,0.34,,,0.38,weatherlink.com 1.10,2014-01-11 04:00:00,
2014-01-10 22:15:00,62.1,62.0,29.95,ENE,69,3.0,6.0,100,0.44,,,0.48,weatherlink.com 1.10,2014-01-11 04:15:00,
2014-01-10 22:30:00,62.0,62.0,29.95,ESE,105,3.0,6.0,100,0.44,,,0.48,weatherlink.com 1.10,2014-01-11 04:30:00,
2014-01-10 22:45:00,61.9,62.0,29.95,ESE,110,4.0,5.0,100,0.36,,,0.48,weatherlink.com 1.10,2014-01-11 04:45:00,
2014-01-10 23:00:00,62.2,62.0,29.94,ESE,103,3.0,8.0,100,0.09,,,0.48,weatherlink.com 1.10,2014-01-11 05:00:00,
2014-01-10 23:15:00,63.3,63.0,29.93,ESE,111,2.0,7.0,100,0.00,,,0.48,weatherlink.com 1.10,2014-01-11 05:15:00,
2014-01-10 23:30:00,64.1,64.0,29.94,East,82,4.0,6.0,100,0.00,,,0.48,weatherlink.com 1.10,2014-01-11 05:30:00,
2014-01-10 23:45:00,64.9,65.0,29.93,ESE,110,2.0,8.0,100,0.00,,,0.48,weatherlink.com 1.10,2014-01-11 05:45:00,